Pittsburgh, PA

2:57 PM EST on January 20, 2017 (GMT -0500)
Allegheny County

Weather History for KAGC - May, 2014

Change the Weather History Date:

Monday, May 12, 2014

  Actual Average Record
Temperature  
Mean Temperature 70 °F -  
Max Temperature 80 °F 71 °F 87 °F (1993)
Min Temperature 62 °F 48 °F 38 °F (1988)
Cooling Degree Days 6    
Growing Degree Days 20 (Base 50)    
Moisture  
Dew Point 61 °F    
Average Humidity 76    
Maximum Humidity 90    
Minimum Humidity 54    
Precipitation  
Precipitation 0.16 in - - ()
Sea Level Pressure  
Sea Level Pressure 30.10 in    
Wind  
Wind Speed 6 mph (SSW)    
Max Wind Speed 13 mph    
Max Gust Speed 17 mph    
Visibility 9 miles    
Events Rain    
Averages and records for this station are not official NWS values.
T = Trace of Precipitation, MM = Missing Value Source: NWS Daily Summary

Daily Weather History Graph

Daily Weather History Graph

Search for Another Location

Airport or City:

Trip Planner

Search our weather history database for the weather conditions in past years. The results will help you decide how hot, cold, wet, or windy it might be!

Date:

Astronomy

May. 12, 2014 Rise Set
Actual Time 6:06 AM EDT 8:26 PM EDT
Civil Twilight 5:35 AM EDT 8:56 PM EDT
Nautical Twilight 4:58 AM EDT 9:34 PM EDT
Astronomical Twilight 4:16 AM EDT 10:16 PM EDT
Moon 6:22 PM EDT (5/12) 4:45 AM EDT (5/12)
Length of Visible Light 15h 20m
Length of Day
14h 19m
Waxing Gibbous, 95% of the Moon is Illuminated
May 12
Waxing Gibbous
May 14
Full
May 21
Last Quarter
May 28
New
Jun 5
First Quarter

Hourly Weather History & Observations

Time (EDT) Temp. Dew Point Humidity Pressure Visibility Wind Dir Wind Speed Gust Speed Precip Events Conditions
12:53 AM 66.0 °F 53.1 °F 63% 30.10 in 10.0 mi SSE 5.8 mph - N/A   Clear
1:53 AM 66.0 °F 53.1 °F 63% 30.09 in 10.0 mi South 6.9 mph - N/A   Mostly Cloudy
2:53 AM 66.0 °F 53.1 °F 63% 30.09 in 10.0 mi Calm Calm - 0.00 in   Overcast
3:53 AM 62.1 °F 55.0 °F 78% 30.06 in 10.0 mi SSE 4.6 mph - N/A   Scattered Clouds
4:53 AM 64.0 °F 54.0 °F 70% 30.07 in 10.0 mi South 4.6 mph - N/A   Overcast
5:53 AM 63.0 °F 55.0 °F 75% 30.09 in 10.0 mi SSE 6.9 mph - N/A   Mostly Cloudy
6:53 AM 63.0 °F 54.0 °F 72% 30.11 in 10.0 mi South 6.9 mph - N/A   Mostly Cloudy
7:53 AM 64.9 °F 57.0 °F 75% 30.11 in 10.0 mi South 5.8 mph - N/A   Overcast
8:53 AM 64.9 °F 59.0 °F 81% 30.13 in 7.0 mi SW 9.2 mph - 0.01 in Rain Light Rain
9:53 AM 64.4 °F 60.8 °F 88% 30.10 in 5.0 mi South 9.2 mph - N/A Rain Light Rain
10:23 AM 66.2 °F 62.6 °F 88% 30.10 in 10.0 mi South 9.2 mph - 0.01 in   Scattered Clouds
10:53 AM 68.0 °F 63.0 °F 84% 30.11 in 10.0 mi SSW 5.8 mph - 0.01 in   Mostly Cloudy
11:53 AM 72.0 °F 63.0 °F 73% 30.12 in 10.0 mi WSW 11.5 mph - N/A   Mostly Cloudy
12:11 PM 73.4 °F 64.4 °F 73% 30.12 in 10.0 mi SW 11.5 mph - N/A   Scattered Clouds
12:38 PM 75.2 °F 64.4 °F 69% 30.11 in 10.0 mi SW 12.7 mph 17.3 mph N/A   Mostly Cloudy
12:53 PM 75.0 °F 62.1 °F 64% 30.10 in 10.0 mi WSW 11.5 mph - N/A   Mostly Cloudy
1:53 PM 75.9 °F 62.1 °F 62% 30.10 in 10.0 mi SW 8.1 mph - N/A   Overcast
2:53 PM 79.0 °F 61.0 °F 54% 30.10 in 10.0 mi West 10.4 mph - N/A   Overcast
3:53 PM 75.9 °F 64.0 °F 67% 30.11 in 10.0 mi WSW 9.2 mph - 0.00 in Rain Light Rain
4:43 PM 69.8 °F 64.4 °F 83% 30.12 in 1.5 mi West 3.5 mph - 0.12 in Rain Heavy Rain
4:53 PM 70.0 °F 64.9 °F 84% 30.11 in 2.5 mi WSW 4.6 mph - 0.14 in Rain Light Rain
5:00 PM 71.6 °F 66.2 °F 83% 30.10 in 7.0 mi WSW 4.6 mph - 0.00 in Rain Light Rain
5:53 PM 73.0 °F 66.9 °F 81% 30.10 in 10.0 mi Calm Calm - 0.00 in   Overcast
6:53 PM 72.0 °F 66.9 °F 84% 30.10 in 8.0 mi SSE 3.5 mph - N/A   Mostly Cloudy
7:53 PM 71.1 °F 66.0 °F 84% 30.09 in 9.0 mi South 3.5 mph - N/A   Scattered Clouds
8:53 PM 70.0 °F 66.0 °F 87% 30.09 in 9.0 mi Calm Calm - N/A   Clear
9:53 PM 69.1 °F 66.0 °F 90% 30.09 in 6.0 mi SSE 5.8 mph - N/A   Clear
10:53 PM 68.0 °F 64.4 °F 88% 30.10 in 8.0 mi SE 3.5 mph - N/A   Clear
11:53 PM 68.0 °F 64.9 °F 90% 30.08 in 6.0 mi SE 3.5 mph - N/A   Clear